Theta_e
333 333 333 333 335 335 335 335 336 336 335 335 334 334 335 335 336 336 336 335 335 334 334 334 334 334 334 334 333 333 333 332 332 332 331 331 331 331 331 331 330 328 328 329 328 328 329 330 329 329 328 329 328 328 328 327 327 327 327 327 327 327 327
334 333 333 333 334 335 335 336 336 336 336 335 334 334 334 334 335 335 336 336 335 334 333 334 334 333 333 333 333 332 332 332 332 332 332 332 331 331 331 331 331 329 329 329 328 327 328 329 330 328 327 327 327 327 327 327 326 326 326 326 326 325 326
334 333 333 333 333 335 335 336 336 336 336 334 333 334 334 334 334 335 335 335 335 334 334 334 333 333 333 333 332 332 332 332 332 332 332 332 332 331 331 331 332 331 330 329 329 328 327 328 329 327 326 327 327 327 326 326 326 326 325 324 324 324 324
335 333 333 333 333 335 335 336 336 336 336 334 334 335 334 334 334 335 335 334 334 334 334 333 332 332 332 333 332 332 332 332 332 332 331 331 331 331 331 331 331 331 330 330 330 329 328 327 328 327 326 327 326 326 326 326 325 325 325 325 324 324 323
335 334 333 333 334 334 334 336 337 336 336 335 335 334 334 334 334 334 334 333 333 333 332 332 332 331 332 333 333 333 333 333 332 332 331 330 330 331 331 330 330 331 331 330 330 329 328 328 327 327 326 327 326 326 326 326 323 323 323 324 324 323 321
335 334 333 334 334 334 334 336 336 335 335 334 334 334 333 333 333 333 333 333 333 332 332 332 331 331 332 332 333 333 333 333 332 332 331 330 330 330 331 330 331 332 331 330 329 328 328 328 327 326 326 326 326 326 326 325 321 319 319 319 319 319 318
334 334 333 334 335 334 335 336 336 335 335 334 334 334 333 333 333 333 333 332 332 332 332 332 332 332 332 333 333 333 333 332 332 332 332 332 331 330 331 331 331 331 331 330 329 328 328 327 327 326 326 326 326 325 326 325 320 317 316 316 316 316 315
333 334 334 334 335 334 335 335 335 334 334 334 333 333 333 332 332 332 332 331 331 331 332 332 332 332 332 333 334 333 332 332 332 332 332 332 332 331 331 330 330 330 330 330 330 330 329 328 327 327 326 326 325 324 324 323 319 317 315 312 313 314 313
332 333 333 334 335 335 335 334 334 333 333 332 332 332 332 331 331 331 330 330 331 331 331 331 331 332 333 333 333 333 332 332 332 332 332 332 332 332 331 330 330 329 329 330 331 331 329 328 327 327 326 325 324 324 324 321 318 316 314 311 310 311 311
332 332 332 334 335 335 334 334 333 333 332 332 332 332 331 330 330 330 329 330 330 330 330 330 330 331 332 333 333 333 332 332 332 332 332 332 332 332 331 330 331 330 329 330 330 331 330 328 327 327 327 325 323 323 323 321 319 313 311 310 309 308 308
333 333 332 334 335 334 333 333 333 332 332 332 332 331 331 330 330 329 329 330 330 330 329 329 329 329 329 330 331 332 332 332 332 332 332 331 331 332 331 331 331 331 331 330 329 330 330 328 328 327 328 326 323 321 320 320 319 312 308 310 309 308 308
332 333 334 334 334 333 332 333 332 332 332 332 331 330 330 330 329 329 329 329 329 330 329 328 329 329 328 329 331 331 331 332 332 332 332 331 331 331 331 331 331 331 331 331 329 330 330 328 328 328 329 327 323 322 318 317 317 312 309 310 309 309 309
331 332 333 333 333 332 332 332 331 331 331 331 330 330 330 329 329 329 329 329 329 328 328 327 328 328 327 329 330 330 331 331 331 331 332 331 330 330 331 331 332 331 331 330 329 329 330 329 329 329 329 327 324 324 320 316 314 311 309 310 310 310 310
331 331 332 332 331 331 332 331 330 330 330 330 330 329 329 328 329 329 328 328 328 328 327 327 327 327 327 328 328 329 330 330 330 330 330 331 330 330 330 330 331 331 331 330 328 328 329 328 328 328 327 325 325 324 319 314 313 311 309 310 310 310 310
330 330 331 330 330 332 331 330 330 330 330 330 329 329 328 328 328 328 328 327 327 326 326 325 326 326 327 327 326 328 329 329 329 328 329 330 329 329 330 330 330 331 330 329 327 327 328 327 326 326 326 325 324 324 320 314 312 310 309 310 310 310 311
330 330 329 329 331 332 331 329 330 330 329 329 328 328 327 327 327 327 327 326 326 325 325 324 325 326 326 325 326 327 327 326 327 327 327 328 328 328 329 329 330 330 330 328 328 327 327 327 326 325 325 325 324 324 323 317 312 310 309 310 311 311 311
330 329 329 330 332 331 330 330 329 329 328 327 327 327 326 325 326 326 325 325 324 323 324 324 325 325 325 324 325 325 325 325 325 325 326 325 325 327 329 329 329 329 330 329 328 327 327 328 327 326 326 326 324 324 324 318 312 311 310 310 311 311 312
331 331 331 331 331 331 331 329 328 327 326 326 327 327 326 325 325 325 323 323 323 322 322 322 324 324 323 324 325 324 324 324 324 324 324 324 325 326 328 329 328 328 329 329 328 328 328 327 328 328 327 326 324 324 323 319 314 312 310 310 312 312 311
330 330 330 330 330 331 330 329 327 326 325 326 327 327 326 325 324 324 323 322 322 321 320 320 322 322 322 323 324 323 323 323 323 323 322 323 325 325 326 327 328 327 328 328 328 327 327 327 328 328 327 326 324 323 322 318 314 311 309 310 311 312 311
329 328 328 329 330 330 330 328 327 326 325 326 326 326 325 324 324 324 323 322 321 320 319 319 321 322 322 323 323 322 322 323 322 322 321 322 324 324 324 325 326 327 327 327 327 327 326 326 327 327 325 324 322 321 319 317 313 311 310 311 311 312 311
328 327 328 328 329 329 329 329 327 326 326 325 324 324 324 323 322 322 321 320 320 319 318 319 321 321 322 322 322 322 322 322 321 321 321 322 322 322 322 322 325 327 327 326 327 327 326 325 325 325 323 322 322 320 317 315 313 312 312 312 312 312 312
327 327 328 328 328 329 329 328 327 326 326 324 323 323 322 321 321 321 319 319 318 318 318 318 320 320 321 322 322 321 321 321 321 321 321 321 321 322 322 321 324 327 327 326 327 326 325 325 324 324 323 322 321 319 316 315 314 313 313 313 314 314 313
326 326 327 327 327 328 328 327 327 326 324 323 322 321 321 321 320 319 318 318 317 317 317 318 319 320 321 321 321 320 320 320 320 320 320 321 321 321 322 321 323 326 327 327 327 326 325 324 323 322 322 321 320 318 317 318 317 316 315 315 315 315 314
326 325 326 326 326 327 327 326 324 323 322 321 321 320 320 320 320 319 318 317 317 317 317 316 318 319 319 320 320 319 319 318 318 319 319 320 321 321 320 319 320 324 327 327 326 326 325 324 323 322 321 321 320 319 319 320 320 319 319 319 318 317 316
325 325 325 325 325 326 326 324 323 322 321 320 320 320 321 321 320 320 319 318 317 316 316 315 316 318 318 319 319 319 318 318 318 318 319 320 320 319 318 317 317 319 322 324 324 325 325 325 324 323 322 321 321 321 320 320 320 320 320 320 320 319 318
324 324 324 324 324 324 323 322 322 321 320 320 320 320 320 320 319 318 318 317 316 315 314 314 315 316 318 318 318 318 319 318 317 318 319 320 319 318 317 317 317 316 317 319 319 320 321 321 321 321 321 320 319 319 320 320 320 320 320 320 320 319 319
323 323 323 323 323 323 323 322 321 321 320 320 320 319 318 317 316 315 314 314 313 312 312 312 313 314 316 316 315 316 319 320 319 319 320 320 320 319 319 319 319 318 318 318 318 318 318 316 317 319 319 318 318 318 318 318 317 317 317 317 317 318 317
321 321 322 323 323 322 322 321 320 320 319 319 318 317 315 314 313 313 312 312 312 311 311 312 312 312 313 313 313 315 319 321 320 320 320 319 320 320 319 320 320 319 319 319 318 319 318 317 318 321 322 321 321 320 319 318 318 317 316 315 315 315 315
316 318 318 320 320 320 320 319 318 318 318 317 316 315 314 313 313 312 312 312 312 311 311 312 313 314 314 314 315 317 319 320 320 321 321 321 322 321 320 320 321 320 320 319 319 319 319 319 319 320 320 321 322 322 321 321 320 319 319 318 317 317 316
312 314 315 315 315 315 316 316 316 317 317 315 314 314 313 312 311 311 312 312 311 310 309 310 312 314 316 317 317 318 319 319 320 321 320 320 321 322 321 320 320 319 319 318 318 318 319 320 320 320 319 320 320 321 321 321 321 321 320 320 319 318 318
308 310 311 312 312 313 314 314 315 315 315 314 312 312 311 310 309 309 309 309 308 308 307 307 309 312 315 317 317 316 315 315 316 317 317 317 318 318 317 316 316 316 315 314 314 314 316 317 317 316 316 316 316 316 317 318 319 319 319 320 319 319 319
306 307 308 308 309 310 311 312 313 313 313 313 311 311 311 310 309 309 308 307 306 305 304 303 305 308 310 312 313 314 313 311 310 311 313 314 314 314 313 312 312 312 311 311 310 311 311 312 311 311 311 310 310 310 309 309 310 311 312 313 313 313 313
304 305 306 307 307 308 308 309 310 310 311 311 310 309 309 309 307 306 305 304 302 301 300 300 300 302 303 303 305 308 309 306 305 306 309 311 311 311 309 308 308 308 308 308 308 308 308 308 308 307 306 305 304 303 303 302 301 301 301 301 301 301 301
303 304 304 305 305 306 307 307 307 307 307 307 307 306 306 306 305 304 303 301 301 301 300 299 299 299 299 298 299 300 301 300 299 303 306 307 307 306 305 305 304 304 304 304 304 303 302 302 301 300 299 299 298 298 297 297 297 297 297 298 299 300 300
304 304 304 303 303 303 304 304 304 305 305 305 306 306 306 306 306 305 303 303 302 303 302 301 299 299 298 298 298 298 298 297 297 299 302 303 303 303 302 301 301 300 300 299 299 298 298 298 298 298 298 299 299 299 299 298 299 301 302 303 304 305 306
303 304 304 304 303 303 303 304 304 304 305 306 307 307 307 306 306 304 303 302 302 303 303 302 301 300 299 299 298 298 298 298 298 298 299 300 301 300 300 299 298 297 297 298 299 300 300 301 302 302 302 303 303 303 303 302 303 304 305 306 307 307 307
303 303 303 304 304 304 304 304 304 305 305 306 306 306 307 307 306 304 302 301 301 302 303 303 301 301 300 299 299 299 299 300 300 300 300 300 300 299 298 297 298 299 300 301 302 303 303 303 303 303 303 303 303 304 305 305 305 305 305 306 307 307 306
Wind_Speed
22 26 23 23 22 20 19 18 17 15 14 15 14 15 16 15 17 17 16 15 15 15 15 14 13 13 14 15 14 13 13 12 13 16 18 16 15 13 10 8 5 12 18 12 11 13 5 2 5 5 8 10 11 12 12 13 14 13 14 16 17 16 15
20 22 21 22 23 22 20 19 17 16 15 14 13 16 17 16 17 17 17 16 13 14 16 15 14 14 13 14 15 14 13 13 13 15 16 16 15 14 13 11 10 13 13 10 14 16 8 5 4 3 7 8 7 10 12 13 14 13 14 16 16 15 14
18 19 20 21 23 22 20 19 18 17 17 16 16 17 16 14 15 16 16 16 14 14 15 15 15 14 13 13 15 15 14 13 14 14 15 14 13 14 15 14 14 14 12 9 12 13 10 8 5 5 10 10 7 9 12 13 13 13 14 15 16 15 14
20 22 22 22 22 21 20 19 19 19 19 19 18 18 16 15 15 15 14 14 13 13 13 13 14 13 13 14 15 15 15 13 13 14 14 15 14 13 15 16 17 17 15 12 14 16 13 9 7 7 10 12 11 13 14 13 13 15 16 16 17 17 15
23 24 25 24 23 22 21 20 19 20 20 19 20 18 17 16 15 15 14 14 14 13 12 13 14 13 13 14 15 15 14 12 13 14 14 15 15 14 14 15 16 17 15 15 18 19 17 17 15 10 10 14 10 11 16 15 14 17 19 19 19 18 14
25 25 26 25 23 23 23 21 20 21 21 20 20 19 18 16 16 16 14 14 16 13 11 13 14 13 13 13 15 15 14 13 12 13 14 14 15 14 14 15 15 14 13 13 17 18 17 22 22 13 13 16 11 12 16 15 16 18 19 19 17 16 14
27 25 26 25 23 23 23 22 21 23 23 21 20 19 18 18 17 16 15 14 16 14 12 14 14 13 13 12 14 15 15 14 13 12 13 13 13 12 13 15 15 14 12 13 16 17 18 23 23 18 15 13 11 13 13 14 17 17 16 17 16 15 12
30 27 26 24 22 22 23 23 23 23 23 21 19 19 19 19 18 17 16 14 15 15 14 15 14 14 14 12 14 14 14 15 14 13 13 12 12 12 12 14 14 13 13 14 15 16 18 23 25 25 20 11 7 9 9 12 16 17 18 18 17 17 14
33 29 26 24 22 22 23 23 24 24 23 21 20 19 19 19 18 18 17 14 15 16 14 14 14 15 15 14 15 15 14 14 14 13 13 13 13 12 12 13 14 14 15 15 16 14 16 22 25 25 25 17 10 6 6 8 10 12 19 20 15 15 15
33 32 29 27 23 23 23 23 24 24 22 21 21 19 18 17 18 18 17 16 16 15 14 13 13 14 14 14 14 14 13 12 12 13 12 13 14 12 12 13 13 14 14 14 16 15 15 20 24 22 22 23 18 9 5 5 6 9 18 22 18 14 15
29 31 31 29 26 25 23 22 23 23 21 22 21 19 18 18 18 17 17 17 16 14 14 13 13 13 12 12 12 13 13 12 11 12 11 11 14 13 12 13 12 13 13 12 15 16 16 19 22 20 17 21 22 16 11 7 5 12 20 21 19 17 17
26 28 29 28 26 27 25 22 24 23 23 23 22 20 19 18 17 17 17 17 16 15 13 11 13 14 11 10 11 11 13 12 11 11 11 10 12 13 13 13 13 13 12 12 14 16 17 17 19 19 15 15 16 14 17 13 5 13 24 23 19 19 18
24 26 27 26 26 26 25 24 25 25 25 24 22 20 19 18 17 17 17 16 16 15 12 11 13 13 10 10 10 10 12 12 11 12 11 10 10 12 14 14 14 14 12 13 14 16 17 16 17 19 16 14 11 6 15 20 11 11 22 24 21 19 17
23 24 26 27 26 25 25 27 27 26 25 24 22 20 19 18 16 15 16 16 15 14 12 11 12 12 11 10 10 10 10 11 11 11 11 10 10 12 13 13 14 14 12 12 15 16 17 15 15 17 15 15 11 5 13 24 17 12 18 22 21 20 18
23 24 26 28 27 25 26 28 27 26 25 22 21 19 18 19 16 15 16 15 15 14 11 10 11 12 11 9 10 11 10 11 11 11 11 11 11 11 11 11 14 14 12 12 14 15 16 15 14 16 16 15 12 7 12 21 19 16 18 21 22 22 21
23 24 27 28 27 26 28 27 25 24 22 20 20 18 18 18 16 16 16 14 14 13 11 10 10 11 10 8 10 11 9 10 11 11 13 12 12 12 10 10 13 14 12 11 13 13 14 15 14 16 16 15 15 9 9 17 19 19 21 22 24 25 23
25 24 27 28 28 28 28 25 23 21 19 19 20 19 18 18 16 16 15 13 14 14 12 11 9 10 10 9 10 9 7 9 11 11 12 11 12 13 11 11 13 14 13 12 12 12 13 13 13 15 16 15 16 11 9 17 22 22 24 23 24 26 24
26 26 26 26 29 31 27 25 23 20 20 20 20 19 18 16 16 15 14 14 15 14 12 10 9 9 10 8 8 7 7 9 10 9 8 8 12 13 11 11 12 13 14 13 12 11 12 13 12 14 14 15 17 13 10 17 22 23 27 27 25 25 23
24 25 24 20 26 31 28 26 23 22 22 21 20 20 18 16 15 14 14 16 17 14 11 9 8 10 10 8 8 8 7 8 9 9 8 9 12 12 9 8 8 10 13 14 13 11 12 13 14 14 13 15 16 13 12 19 23 24 27 28 27 26 24
18 22 24 18 24 32 29 26 25 22 21 20 21 21 18 16 15 13 15 19 17 14 12 9 8 11 11 9 8 9 9 8 9 8 8 10 12 10 7 5 5 8 11 12 13 10 10 13 15 14 13 14 13 10 15 23 25 25 26 25 25 25 25
15 20 24 20 23 31 28 26 25 22 20 20 21 21 17 16 16 15 17 19 18 16 13 10 10 12 11 9 9 10 9 8 8 9 9 9 10 9 6 4 4 6 9 12 12 9 8 12 14 11 10 12 11 11 19 25 24 24 25 23 22 23 25
17 19 24 22 24 29 28 26 24 21 20 20 19 18 17 16 17 18 20 20 19 17 15 13 12 11 10 11 10 9 8 6 6 7 8 8 8 7 7 6 5 6 9 10 10 7 6 9 10 7 6 9 12 14 19 21 22 24 24 22 21 21 22
17 16 22 24 22 25 26 24 22 22 21 20 18 17 17 17 19 21 22 21 20 18 16 14 14 12 12 12 11 8 7 6 4 3 5 8 10 9 8 8 8 8 9 9 8 7 7 7 6 6 6 7 9 12 13 12 14 19 19 17 18 18 19
19 17 23 24 22 24 25 23 23 22 20 20 18 17 19 21 22 22 22 20 19 18 16 14 13 13 12 12 11 9 6 6 6 3 2 7 10 11 10 9 9 8 8 8 7 6 6 6 5 5 6 7 7 8 8 7 6 7 7 7 8 10 13
22 21 24 25 24 26 25 23 22 20 19 22 21 19 21 23 23 21 20 19 18 16 15 13 12 12 12 12 12 9 7 5 5 4 5 7 11 12 12 12 11 10 9 7 7 6 5 4 3 3 3 4 3 3 3 2 1 1 0 1 1 1 3
23 22 21 20 23 26 26 24 24 22 23 25 24 23 23 22 21 20 18 17 16 15 13 12 11 11 10 11 12 10 8 6 4 5 9 11 11 12 13 15 14 12 10 8 7 6 5 3 2 2 1 1 2 2 2 4 4 5 6 7 7 6 4
24 23 21 20 22 26 27 26 27 26 26 25 24 23 22 21 21 19 17 16 16 15 13 11 10 10 9 9 9 9 9 10 9 11 14 15 13 11 12 14 14 12 9 8 6 5 5 4 3 2 1 1 1 1 2 3 5 7 9 10 12 13 12
27 26 26 25 25 27 28 27 27 27 27 26 24 23 21 21 21 19 17 16 15 14 13 11 9 9 8 8 8 8 8 10 11 12 13 13 14 14 12 13 14 12 8 7 6 5 5 5 4 3 3 3 2 1 1 2 4 7 9 10 11 13 14
29 28 27 27 27 28 28 28 27 28 29 28 25 23 22 21 20 20 18 15 15 15 13 11 10 9 9 9 9 8 8 8 9 10 11 12 13 15 14 12 12 11 8 8 7 6 6 5 5 5 4 3 3 1 1 2 4 6 7 9 10 11 13
29 29 27 28 27 26 28 28 27 28 29 27 23 22 21 20 19 19 17 15 15 16 14 12 11 10 10 10 10 10 10 11 13 13 13 13 13 14 13 11 10 10 8 8 8 6 4 3 2 3 1 0 1 1 1 3 4 5 6 7 8 9 12
30 30 28 26 25 24 26 27 25 25 27 26 23 22 21 21 20 19 18 17 15 15 15 14 11 10 10 9 10 12 14 16 17 16 14 14 13 13 12 10 9 8 8 8 7 5 4 3 3 4 4 4 5 5 6 7 8 9 10 10 10 11 13
31 30 28 25 23 23 24 25 24 24 25 25 23 22 20 21 21 19 18 18 16 15 15 14 12 10 10 8 8 11 14 18 20 18 15 13 13 12 12 11 10 9 8 8 7 7 7 6 7 7 8 9 10 10 11 13 14 16 17 17 17 18 18
31 30 28 25 23 22 22 24 24 25 25 24 22 21 19 20 21 20 18 17 17 16 16 15 14 12 10 9 8 7 9 14 18 18 15 13 11 11 11 11 11 10 8 8 8 8 9 9 10 10 11 12 13 14 15 16 16 16 18 19 19 20 21
30 29 27 25 24 23 22 23 24 25 25 23 22 22 21 21 22 22 19 18 19 18 17 17 16 15 13 12 11 9 9 12 14 15 14 12 10 9 10 10 10 9 9 10 10 11 12 11 11 11 11 11 11 12 14 14 14 13 13 13 13 14 15
27 26 25 24 24 23 23 23 23 24 24 23 23 23 21 20 20 21 20 19 19 18 18 17 17 17 16 15 14 13 13 13 12 12 12 10 8 8 10 10 10 10 11 11 11 11 11 10 9 9 9 9 10 10 11 11 11 10 10 10 11 12 13
27 26 24 22 21 20 18 17 18 19 19 19 20 20 18 18 18 20 21 21 20 18 18 17 17 17 17 16 15 14 14 13 11 10 10 9 7 6 8 9 9 9 9 10 10 11 11 12 13 13 13 13 13 13 12 11 10 10 10 10 10 11 13
25 25 24 23 21 21 19 16 15 15 14 13 13 15 16 16 16 19 21 22 20 18 16 16 16 17 17 16 14 12 12 12 10 9 10 10 9 8 8 8 9 10 11 12 12 12 13 14 15 15 15 15 15 16 16 14 12 12 12 11 9 9 11
Wind_Direction
187 175 175 180 178 181 186 186 185 184 185 185 186 190 193 192 194 193 188 191 198 196 191 184 183 186 184 183 184 185 183 178 181 180 173 173 176 175 169 150 150 171 166 162 162 153 134 138 151 152 166 163 159 158 154 154 153 153 155 154 153 154 157
196 179 176 181 178 178 182 183 183 181 182 186 188 190 190 191 190 189 187 190 194 188 186 185 184 186 188 189 185 180 182 177 179 183 175 175 181 175 167 157 152 162 172 174 160 151 141 148 150 144 163 165 169 167 159 158 162 161 157 155 158 162 162
189 180 180 182 179 180 181 182 183 182 182 184 188 187 185 186 186 186 187 187 186 183 183 183 182 185 187 186 180 175 177 176 176 183 181 181 186 181 172 168 164 163 165 166 161 156 149 148 142 149 164 166 167 171 166 163 168 172 167 157 155 161 164
181 179 178 178 180 183 183 182 181 180 180 181 181 179 179 179 176 176 180 179 178 180 183 180 178 182 180 176 174 172 175 177 176 180 184 181 181 182 182 181 176 171 168 172 170 161 154 149 139 147 165 164 161 170 174 170 170 176 178 171 163 164 166
182 181 179 178 182 185 184 182 180 178 178 176 174 173 173 173 170 170 174 176 175 178 182 179 178 179 176 173 173 172 174 178 177 175 177 178 178 181 190 192 185 182 183 183 175 167 165 161 149 148 161 156 156 172 172 167 164 164 166 169 170 171 172
182 184 183 180 182 184 182 180 179 176 172 169 169 170 170 170 170 170 172 174 174 174 171 170 174 179 178 175 172 173 176 178 179 176 172 176 181 182 188 188 184 188 193 189 181 175 172 161 150 148 161 159 161 172 173 171 162 156 160 167 173 176 179
181 185 184 181 181 182 181 180 177 173 171 171 172 172 171 169 169 169 169 170 171 170 165 165 170 174 175 173 170 173 178 180 180 177 173 176 182 185 186 182 183 189 188 181 178 174 171 165 157 155 160 161 164 166 173 178 167 158 161 171 181 183 187
180 183 183 182 182 181 180 179 175 172 172 172 172 172 173 172 169 168 168 169 170 169 167 170 172 171 169 167 168 172 176 179 179 174 174 178 181 186 188 186 188 189 181 175 178 179 177 174 168 163 162 157 158 164 170 177 176 171 162 162 177 189 192
179 179 180 180 183 184 182 179 175 173 170 168 168 167 167 168 167 166 168 167 165 166 169 173 174 172 172 169 168 172 174 178 181 178 178 183 183 186 189 187 187 186 183 179 181 184 181 177 172 170 169 166 159 159 165 174 181 175 164 159 165 184 193
182 179 180 179 181 182 181 180 177 173 170 170 172 170 166 165 164 164 166 164 161 164 168 167 167 167 170 168 165 169 173 176 180 180 184 187 184 187 190 187 185 184 184 184 183 184 184 178 174 175 179 179 173 160 150 178 182 159 162 168 166 172 188
187 183 181 178 179 179 177 177 176 171 170 171 172 172 168 164 165 165 163 159 157 159 161 164 171 166 161 163 163 166 170 172 177 180 186 189 184 190 196 190 187 188 186 187 186 186 187 184 182 183 186 186 182 172 157 160 176 160 160 170 176 178 185
191 186 182 178 180 178 175 175 172 168 168 169 166 165 164 164 168 170 166 160 156 159 161 164 169 163 155 160 165 167 171 174 176 176 184 192 189 195 201 193 190 192 194 193 188 187 189 190 192 193 192 188 185 180 171 160 149 168 167 171 181 187 188
195 190 185 183 179 176 177 175 169 165 163 162 160 160 162 164 165 166 164 160 157 158 159 154 153 154 153 156 159 162 169 175 179 178 183 195 193 195 200 197 193 195 200 200 193 190 192 194 199 199 200 195 184 182 182 170 147 163 175 178 182 186 188
194 191 189 186 179 174 175 170 162 161 159 158 160 161 162 163 161 159 158 157 155 153 155 154 150 151 153 151 151 154 158 167 176 176 177 185 187 190 197 197 194 196 202 201 195 196 198 196 198 200 205 202 187 172 180 170 150 144 170 181 184 183 185
192 192 188 183 178 174 168 161 156 156 156 157 160 160 163 165 162 160 157 154 153 150 150 151 147 149 154 155 159 160 160 165 171 173 172 175 181 187 193 192 192 197 202 199 194 197 199 192 190 197 204 206 198 182 176 172 155 142 158 174 179 178 182
195 192 185 180 178 171 161 156 155 155 155 156 159 161 163 164 161 159 158 156 154 150 146 147 148 153 153 152 159 164 170 174 176 180 177 176 180 183 186 184 187 193 196 196 195 197 198 191 185 190 195 199 202 197 186 182 169 154 158 169 176 177 179
197 192 188 182 175 166 156 154 156 156 153 155 160 163 162 161 161 160 161 161 155 147 145 150 153 153 149 147 155 162 170 174 177 180 180 183 186 182 177 179 185 191 192 194 198 200 199 192 186 188 192 196 201 204 196 189 184 172 164 167 178 183 182
199 194 191 182 169 161 155 154 155 154 153 158 164 163 160 162 164 163 166 162 152 143 142 151 153 146 146 151 156 153 148 152 159 160 158 171 180 176 172 178 186 192 193 195 198 201 204 200 193 191 195 199 202 210 208 196 192 183 173 171 178 184 185
205 194 187 179 164 157 154 153 152 153 158 163 164 159 159 162 160 158 160 154 145 139 141 154 159 148 146 153 159 161 156 151 151 145 132 140 158 166 168 173 182 191 197 197 193 196 207 208 203 200 205 207 207 219 221 201 191 182 177 177 180 184 188
204 188 186 184 163 154 152 151 152 155 162 165 159 156 157 158 155 155 154 148 144 144 147 149 146 142 146 148 149 153 154 150 147 142 136 139 146 149 147 151 173 192 197 190 182 189 209 208 204 206 208 203 204 220 213 196 185 179 178 178 178 184 192
190 181 189 188 161 152 151 152 154 157 160 157 153 154 155 154 154 154 149 145 145 147 147 137 126 135 148 145 134 139 141 133 127 126 127 133 135 131 124 123 148 178 186 183 180 187 204 203 203 209 210 206 216 214 193 184 183 184 184 183 181 188 197
188 177 181 172 153 149 149 152 157 157 153 152 151 154 154 150 147 143 138 137 138 140 138 127 119 123 137 138 131 133 138 129 124 130 134 134 133 130 126 115 117 148 171 178 179 175 172 186 196 196 198 212 220 205 182 177 186 191 190 191 191 191 195
185 172 168 161 152 151 149 148 152 151 150 153 154 154 152 145 139 136 132 129 129 130 126 120 116 113 119 130 132 130 128 118 118 159 163 145 139 135 128 114 111 137 162 166 162 157 152 163 167 147 147 167 176 174 163 157 175 185 188 195 200 198 198
177 163 159 158 158 155 147 141 141 144 145 145 146 147 144 138 134 131 129 126 123 123 122 119 118 115 112 122 131 133 124 108 105 107 141 149 148 140 130 121 115 126 152 164 163 163 164 165 152 129 134 146 144 149 148 128 128 154 164 173 189 201 207
165 159 155 156 157 150 142 136 137 138 135 134 138 141 136 131 128 126 125 124 120 119 121 120 122 123 120 119 120 121 124 126 123 94 83 130 154 148 133 123 116 116 129 146 156 164 173 179 177 153 132 140 144 147 162 158 104 47 27 54 101 181 207
153 155 152 150 147 140 135 133 133 134 131 131 133 133 129 126 124 122 122 121 118 118 121 123 128 134 135 126 115 106 103 110 130 106 91 106 133 144 136 127 122 122 125 131 136 147 160 161 175 201 190 159 192 223 246 255 271 284 290 296 297 293 288
138 142 141 137 132 129 127 126 126 130 131 129 127 125 124 123 119 117 119 119 118 116 112 114 125 138 149 144 126 109 91 85 99 106 99 97 105 120 133 138 137 135 133 135 134 141 159 154 127 111 84 52 18 320 299 285 282 282 285 288 289 289 290
123 125 129 130 125 122 123 123 124 126 125 123 122 121 119 117 114 113 115 119 119 110 101 101 110 122 136 143 138 126 101 85 89 97 96 95 96 105 122 140 143 137 129 127 123 122 145 159 150 120 99 80 51 359 316 299 287 280 280 284 288 289 290
109 111 115 118 116 116 120 122 123 124 121 117 118 117 113 111 109 108 109 113 113 104 94 93 98 102 110 121 128 126 110 93 88 90 94 96 99 105 114 123 126 122 113 103 96 95 111 136 150 143 130 109 80 48 265 254 268 270 270 271 275 279 281
92 100 102 103 103 107 114 117 118 121 120 116 115 114 111 107 106 104 102 102 101 97 90 85 90 99 103 108 113 110 101 96 94 93 94 98 105 109 107 104 104 104 98 88 78 75 84 103 125 124 121 98 33 332 260 242 249 257 266 270 271 274 277
76 86 91 92 95 99 106 110 112 113 115 114 111 112 111 107 103 99 96 92 89 89 86 80 81 95 100 101 101 97 94 95 94 89 88 92 99 104 101 95 90 84 78 71 61 51 45 30 18 17 1 339 328 316 306 299 288 282 281 282 281 282 283
64 73 78 83 90 96 100 106 110 109 109 109 108 109 109 106 99 92 87 84 79 78 79 75 73 84 92 94 95 93 93 93 89 84 84 88 91 93 89 81 75 69 62 55 46 35 28 21 12 7 357 346 339 330 325 322 315 308 303 300 299 298 297
60 66 71 76 84 90 95 101 105 104 103 104 104 102 100 97 92 85 78 76 74 71 72 70 68 70 76 77 79 85 88 85 83 84 85 85 87 86 78 67 60 52 42 33 25 17 13 8 1 354 346 338 334 328 323 322 321 319 316 312 311 309 307
59 62 67 71 75 79 84 87 91 94 97 98 97 94 89 86 84 80 76 77 75 70 67 68 65 62 64 65 62 65 71 72 79 90 93 89 84 72 56 44 35 24 13 7 2 359 356 352 349 346 340 334 331 326 324 325 326 327 327 324 325 326 325
60 62 64 66 68 69 70 72 76 84 90 91 91 91 89 89 90 90 88 84 80 73 68 67 65 60 58 59 58 60 65 70 80 95 99 93 80 52 35 27 17 6 0 1 3 4 6 11 17 17 11 4 355 347 344 347 350 354 1 3 2 0 358
62 64 66 68 69 69 69 70 74 80 87 92 96 101 106 109 110 108 103 95 87 80 74 70 68 61 53 51 54 58 65 71 78 88 91 84 67 37 25 23 21 20 23 32 41 44 45 46 43 37 30 22 16 11 5 1 5 13 15 11 7 10 8
58 61 64 66 67 69 73 77 78 80 88 96 103 114 124 130 129 122 112 101 91 84 77 72 67 60 53 50 54 63 73 77 77 80 80 75 63 44 32 33 46 59 63 63 62 57 52 49 45 42 39 34 31 28 22 16 14 8 0 358 4 11 8